星链-30712 (STARLINK-30712 )

导读

STARLINK-30712是美国SpaceX星链(Starlink)低轨互联网星座中的一颗通信卫星,于2023年9月25日发射升空,属于星链全球网络建设的组成部分。它运行在近地轨道,配备先进通信设备,旨在为全球范围提供高速、低时延的卫星宽带互联网服务,重点覆盖偏远地区与网络基础设施不完善区域,支撑星链星座的全球覆盖目标。

Basic Information
目录编号:
57935
目录名称:
STARLINK-30712
国际标识:
2023-148A
轨道中心:
EARTH
卫星名称:
星链-30712
卫星全名:
星链-30712 (STARLINK-30712 )
卫星状态:
在轨 (已飞行1082 天)
发射日期:
2023-09-25 UTC
国别 :
美国 (US)
星等 :
--
This satellite is enrolled in the Space Conjunction Data Service (SCDS) and the current flight risk assessment level is: High Risk
Orbit Information
数据来源 国际轨道数据 AOE轨道数据
星历时间 2026-09-11T07:42:20+0800
16小时前
查看轨道信息
2026-09-06T06:00:00+0800
5天前
查看轨道信息
半长轴 6840.909km 6840.87km
偏心率 0.0001079 0.0000329
轨道倾角 53.159° 53.164°
近地点辐角 91.140° 67.374°
升交点赤经 239.970° 263.680°
平近点角 268.973° 345.579°
近地点 462.033km 462.507km
远地点 463.511km 462.959km
周期 93.849分钟 93.848分钟
每日圈数 15.343771 15.343902
Detailed Information
固有亮度:
5
最大亮度:
0.3
卫星平台:
Starlink v2.0 mini
覆盖范围:
全球
运营商:
太空探索技术公司
运营商所在国:
美国
制造商(研发单位):
太空探索技术公司
制造商所在国:
美国
使用方式:
暂无
Satellite Introduction
星链(Starlink)计划是由太空探索技术公司(SpaceX)提出的一个巨型低轨卫星互联网星座项目,计划在2019年至2024年间在太空搭建由约1.2万颗卫星组成的“星链”网络,其中1584颗将部署在地球上空550千米处的近地轨道,并从2020年开始工作。该卫星仍在工作。
2D Orbit Map
3D Orbit Map
Orbit Altitude Analysis Chart
Orbit Inclination Analysis Chart
Orbit Comprehensive Analysis Chart
View Comprehensive Chart
Miss Distance Evolution Trend with All Objects
Collision Probability Evolution Trend with All Objects